Regional Weather Roundup
Issued by NWS

Home | Current Version | Previous Version | Graphics & Text | Print | Product List | Glossary Off
Versions: 1 2 3 4 5 6 7 8 9 10 11 12 13 14 15 16 17 18 19 20 21 22 23 24 25 26 27 28 29 30 31 32 33 34 35 36 37 38 39 40 41 42 43 44 45 46 47 48 49 50

000
ASUS43 KIND 191009
RWRIN

WEATHER ROUNDUP FOR INDIANA
NATIONAL WEATHER SERVICE INDIANAPOLIS IN
500 AM EST MON FEB 19 2018

NOTE: "FAIR" INDICATES FEW OR NO CLOUDS BELOW 12,000 FEET WITH NO
SIGNIFICANT WEATHER AND/OR OBSTRUCTIONS TO VISIBILITY.

* - STATION DOES NOT REPORT WEATHER SUCH AS PRECIPITATION OR FOG.

+ - STATION NOT QUALITY CONTROLLED BY THE NATIONAL WEATHER SERVICE.
    USE DATA WITH CAUTION...ESPECIALLY DEWPOINT AND RELATIVE
    HUMIDITY OBSERVATIONS.

INZ001>003-010>013-019-020-191100-
NORTHWEST INDIANA

CITY           SKY/WX    TMP DP  RH WIND       PRES   REMARKS
GARY /AIRPORT/ CLOUDY    40  39  95 S6        29.90R FOG     WCI  36
LA PORTE +     CLOUDY    37  36  95 S6        29.91S WCI  32
MICHIGAN CITY+ CLOUDY    39  37  93 S8        29.91R WCI  34
MONTICELLO +   CLOUDY    44  43  95 S10       29.92R
RENSSELAER +   DRZL/FOG  39  36  87 CALM      29.90F VSB 1
VALPARAISO     CLOUDY    40  38  93 S9        29.91R FOG     WCI  34

$$

LMZ046-743>745-191100-
SOUTHERN LAKE MICHIGAN

STATION/POSITION TIME  TEMP    WIND        PRES    WAVE
                       AIR SEA DIR/SP/G            HT
                 (UTC) (F)     (DEG/KT/KT) (MB)    (FT)
BURNS HARBOR     0940   40     180/ 12/ 19 1012.5S
MICHIGAN CITY    0940   40     160/ 13/ 17   N/A

$$

INZ004-005-014>016-021>024-191100-
NORTH CENTRAL INDIANA

CITY           SKY/WX    TMP DP  RH WIND       PRES   REMARKS
GOSHEN         CLOUDY    39  36  89 S8        29.93S WCI  33
LOGANSPORT +   DRIZZLE   43  41  93 SW9       29.94R
PERU/GRISSOM   CLOUDY    45  45 100 SW10      29.93R
ROCHESTER +    LGT RAIN  41  41 100 SE3       29.94F
SOUTH BEND     CLOUDY    37  35  92 S9        29.92F WCI  30
WARSAW +       RAIN      37  37 100 CALM      29.94F

$$

INZ006>009-017-018-025>027-191100-
NORTHEAST INDIANA

CITY           SKY/WX    TMP DP  RH WIND       PRES   REMARKS
AUBURN +       LGT SNOW  36  36 100 E3        29.97R
FORT WAYNE     RAIN      39  38  96 S3        29.95S FOG
HUNTINGTON +   RAIN      42  40  93 W3        29.95R
KENDALLVILLE + LGT RAIN  37  36  96 S5        29.96R WCI  33

$$

INZ028-029-035-036-043>045-051>053-191100-
WEST CENTRAL INDIANA

CITY           SKY/WX    TMP DP  RH WIND       PRES   REMARKS
CRAWFORDSVL +  LGT SNOW  45  45 100 SW12      29.96R
GREENCASTLE +  LGT RAIN  50  46  87 S10G17    29.95R
LAFAYETTE      CLOUDY    45  44  97 SW7       29.93R
TERRE HAUTE    CLOUDY    52  47  83 S18G24    29.95S

$$

INZ030>032-037>040-046>048-054>057-064-065-191100-
CENTRAL INDIANA

CITY           SKY/WX    TMP DP  RH WIND       PRES   REMARKS
FISHERS *+     CLOUDY    45  43  93 S14       29.95F
FRANKFORT +    LGT RAIN  46  44  90 SW10      29.95R
GREENWOOD *+   CLOUDY   N/A N/A N/A S14       29.98F
INDIANAPOLIS   LGT RAIN  48  44  86 S14       29.97S
-EAGLE CREEK   CLOUDY    50  43  77 S13G20    29.95R
KOKOMO +       LGT RAIN  45  41  86 S18       29.94R
MARION +       CLOUDY    44  40  85 S17       29.94S
MT COMFORT *+  CLOUDY    45  43  93 S15       29.96F
SHELBYVILLE    CLOUDY    47  41  80 S17       29.98F
ZIONSVILLE +   CLOUDY    44  41  89 S14       29.94S

$$

INZ033-034-041-042-049-050-058-059-191100-
EAST CENTRAL INDIANA

CITY           SKY/WX    TMP DP  RH WIND       PRES   REMARKS
MUNCIE         CLOUDY    49  41  74 S14G24    29.95F
RICHMOND +     RAIN      41  39  93 S10       30.02R

$$

INZ060-061-067>069-081>083-085>088-191100-
SOUTHWEST INDIANA

CITY           SKY/WX    TMP DP  RH WIND       PRES   REMARKS
EVANSVILLE     CLOUDY    56  53  90 S13       30.04S
HUNTINGBURG +  CLOUDY    55  51  86 S17       30.04F
WASHINGTON +   CLOUDY    54  47  77 S20G26    29.99F

$$

INZ062-063-066-070>080-084-089>092-191100-
SOUTH CENTRAL AND SOUTHEAST INDIANA

CITY           SKY/WX    TMP DP  RH WIND       PRES   REMARKS
BATESVILLE +   CLOUDY    48  48 100 MISG      30.03S
BEDFORD +      CLOUDY    50  45  81 S10       30.01S
BLOOMINGTON    LGT RAIN  52  48  86 S14       29.99F
FRENCH LICK *+ CLOUDY    54  50  87 S13G22    30.03F
MADISON *+     CLOUDY    52  45  76 S12       30.08S
NORTH VERNON + RAIN      48  45  87 S12G17    30.05S
SEYMOUR +      CLOUDY    52  46  82 S13       30.03F

$$





USA.gov is the U.S. government's official web portal to all federal, state and local government web resources and services.